Location: Unspecified
(0.0000°N, 0.0000°E)
Time: 21:27:35
(UTC+00:00)

STARLINK-32449 - Visible Passes

Search period start: 12 January 2025 00:00
Search period end: 22 January 2025 00:00
Orbit: 446 x 448 km, 53.2° (Epoch: 12 January)

Date Brightness Start Highest point End Pass type
(mag) Time Alt. Az. Time Alt. Az. Time Alt. Az.
15 Jan 5.8 20:01:15 10° NW 20:01:55 15° NW 20:01:55 15° NW visible
16 Jan 3.0 19:22:49 10° NNW 19:26:19 88° ENE 19:29:51 10° SE visible
17 Jan 3.4 18:44:36 10° NNW 18:48:00 48° NE 18:51:26 10° SE visible
19 Jan 6.4 19:06:16 10° W 19:08:35 16° SW 19:10:53 10° SSW visible
20 Jan 6.6 05:10:39 10° SSE 05:12:26 13° SE 05:14:12 10° E visible
